Weather History for Norfolk, NE

Change the Weather History Date:

Sunday, November 17, 2013

  Actual Average Record
Temperature  
Mean Temperature 43 °F 36 °F  
Max Temperature 54 °F 46 °F 72 °F (1941)
Min Temperature 32 °F 25 °F -5 °F (1959)
Degree Days  
Heating Degree Days 22 30  
Month to date heating degree days 409 426  
Since 1 July heating degree days 931 1011  
Cooling Degree Days 0 0  
Month to date cooling degree days 0 0  
Year to date cooling degree days 1005 915  
Moisture  
Dew Point 33 °F    
Average Humidity 69    
Maximum Humidity 92    
Minimum Humidity 46    
Precipitation  
Precipitation 0.09 in 0.05 in 1.00 in (1971)
Month to date precipitation 0.82 0.82  
Year to date precipitation 24.78 26.11  
Snow  
Snow 0.00 in 0.20 in - ()
Month to date snowfall 0.8 1.8  
Since 1 July snowfall 0.8 2.6  
Snow Depth 0.00 in    
Sea Level Pressure  
Sea Level Pressure 29.69 in    
Wind  
Wind Speed 11 mph (WNW)    
Max Wind Speed 22 mph    
Max Gust Speed 29 mph    
Visibility 10 miles    
Events Rain    
T = Trace of Precipitation, MM = Missing Value Source: NWS Daily Summary

Daily Weather History Graph

Daily Weather History Graph

Search for Another Location

Airport:

Trip Planner

Search our weather history database for the weather conditions in past years. The results will help you decide how hot, cold, wet, or windy it might be!

Date:

Astronomy

Nov. 17, 2013 Rise Set
Actual Time 7:22 AM CST 5:06 PM CST
Civil Twilight 6:52 AM CST 5:36 PM CST
Nautical Twilight 6:18 AM CST 6:10 PM CST
Astronomical Twilight 5:45 AM CST 6:43 PM CST
Moon 5:24 PM CST (11/17) 7:17 AM CST (11/17)
Length of Visible Light 10h 44m
Length of Day
9h 44m
Full, 100% of the Moon is Illuminated
Nov 17
Full
Nov 25
Last Quarter
Dec 2
New
Dec 9
First Quarter
Dec 17
Full

Hourly Weather History & Observations

Time (CST) Temp. Windchill Dew Point Humidity Pressure Visibility Wind Dir Wind Speed Gust Speed Precip Events Conditions
12:56 AM 39.0 °F 36.8 °F 28.0 °F 65% 29.38 in 10.0 mi West 3.5 mph - N/A   Partly Cloudy
1:56 AM 41.0 °F 36.4 °F 26.1 °F 55% 29.39 in 10.0 mi WSW 6.9 mph - N/A   Overcast
2:56 AM 45.0 °F 41.2 °F 26.1 °F 48% 29.39 in 10.0 mi WSW 6.9 mph - N/A   Overcast
3:56 AM 44.1 °F 38.1 °F 30.0 °F 58% 29.42 in 10.0 mi WNW 11.5 mph - 0.00 in   Overcast
4:56 AM 41.0 °F 37.1 °F 36.0 °F 82% 29.42 in 5.0 mi WSW 5.8 mph - 0.05 in Rain Light Rain
5:56 AM 42.1 °F 36.1 °F 39.0 °F 89% 29.40 in 10.0 mi South 10.4 mph - 0.04 in   Mostly Cloudy
6:56 AM 42.1 °F 35.2 °F 39.0 °F 89% 29.43 in 10.0 mi NW 12.7 mph - N/A   Clear
7:56 AM 37.9 °F 35.5 °F 36.0 °F 93% 29.47 in 10.0 mi West 3.5 mph - N/A   Clear
8:56 AM 43.0 °F 40.3 °F 36.0 °F 76% 29.50 in 10.0 mi NW 4.6 mph - N/A   Clear
9:56 AM 43.0 °F 38.2 °F 37.0 °F 80% 29.54 in 10.0 mi NW 8.1 mph - N/A   Clear
10:56 AM 45.0 °F 39.3 °F 37.9 °F 76% 29.58 in 10.0 mi NNW 11.5 mph - N/A   Clear
11:56 AM 51.1 °F - 39.0 °F 63% 29.62 in 10.0 mi NNW 9.2 mph - N/A   Mostly Cloudy
12:56 PM 52.0 °F - 35.1 °F 53% 29.65 in 10.0 mi North 13.8 mph - N/A   Partly Cloudy
1:56 PM 53.1 °F - 34.0 °F 48% 29.69 in 10.0 mi NW 13.8 mph - N/A   Mostly Cloudy
2:56 PM 53.1 °F - 34.0 °F 48% 29.73 in 10.0 mi WNW 17.3 mph - N/A   Clear
3:56 PM 50.0 °F - 34.0 °F 54% 29.79 in 10.0 mi NW 13.8 mph - 0.00 in Rain Light Rain
4:56 PM 48.9 °F - 32.0 °F 52% 29.84 in 10.0 mi WNW 16.1 mph - 0.00 in   Scattered Clouds
5:56 PM 45.0 °F 37.6 °F 33.1 °F 63% 29.92 in 10.0 mi WNW 17.3 mph - N/A   Scattered Clouds
6:56 PM 42.1 °F 33.9 °F 34.0 °F 73% 29.97 in 10.0 mi WNW 17.3 mph - N/A   Scattered Clouds
7:56 PM 39.0 °F 32.8 °F 32.0 °F 76% 30.00 in 10.0 mi WNW 9.2 mph - N/A   Clear
8:56 PM 37.9 °F 31.5 °F 32.0 °F 79% 30.03 in 10.0 mi West 9.2 mph - N/A   Clear
9:56 PM 37.0 °F 28.5 °F 30.9 °F 79% 30.05 in 10.0 mi West 13.8 mph - N/A   Clear
10:56 PM 34.0 °F 26.6 °F 28.9 °F 82% 30.06 in 10.0 mi West 9.2 mph - N/A   Clear
11:56 PM 33.1 °F 26.1 °F 27.0 °F 78% 30.07 in 10.0 mi West 8.1 mph - N/A   Clear